TimeEST,TemperatureF,Dew PointF,Humidity,Sea Level PressureIn,VisibilityMPH,Wind Direction,Wind SpeedMPH,Gust SpeedMPH,PrecipitationIn,Events,Conditions,WindDirDegrees,DateUTC
12:53 AM,68.0,64.0,87,29.93,10.0,Calm,Calm,-,N/A,,Overcast,0,2012-11-06 05:53:00
1:53 AM,64.9,63.0,93,29.90,10.0,Calm,Calm,-,N/A,,Clear,0,2012-11-06 06:53:00
2:53 AM,64.9,64.0,97,29.90,9.0,SW,4.6,-,N/A,,Scattered Clouds,230,2012-11-06 07:53:00
3:53 AM,64.9,63.0,93,29.88,9.0,SSW,5.8,-,N/A,,Mostly Cloudy,200,2012-11-06 08:53:00
4:53 AM,64.9,63.0,93,29.90,9.0,West,5.8,-,N/A,,Overcast,260,2012-11-06 09:53:00
5:53 AM,64.0,62.1,93,29.91,10.0,SW,4.6,-,N/A,,Overcast,220,2012-11-06 10:53:00
6:53 AM,64.0,62.1,93,29.91,9.0,SSW,4.6,-,N/A,,Scattered Clouds,200,2012-11-06 11:53:00
7:53 AM,66.0,63.0,90,29.91,10.0,SW,5.8,-,N/A,,Clear,220,2012-11-06 12:53:00
8:53 AM,73.0,61.0,66,29.94,10.0,WSW,6.9,-,N/A,,Scattered Clouds,250,2012-11-06 13:53:00
9:53 AM,75.0,57.9,55,29.93,10.0,WSW,6.9,-,N/A,,Scattered Clouds,240,2012-11-06 14:53:00
10:53 AM,75.9,57.0,52,29.92,10.0,NW,11.5,-,N/A,,Clear,310,2012-11-06 15:53:00
11:53 AM,73.0,57.0,57,29.90,10.0,WNW,11.5,-,N/A,,Partly Cloudy,300,2012-11-06 16:53:00
12:53 PM,75.0,57.9,55,29.86,10.0,West,8.1,-,N/A,,Clear,270,2012-11-06 17:53:00
1:53 PM,77.0,55.9,48,29.83,10.0,WSW,6.9,-,N/A,,Clear,240,2012-11-06 18:53:00
2:53 PM,78.1,57.9,50,29.82,10.0,SW,11.5,-,N/A,,Scattered Clouds,230,2012-11-06 19:53:00
3:53 PM,75.9,60.1,58,29.82,10.0,WSW,12.7,-,N/A,,Overcast,250,2012-11-06 20:53:00
4:53 PM,75.0,61.0,62,29.83,10.0,West,6.9,-,N/A,,Overcast,270,2012-11-06 21:53:00
5:53 PM,73.0,62.1,68,29.83,10.0,WSW,6.9,-,N/A,,Clear,250,2012-11-06 22:53:00
6:53 PM,70.0,62.1,76,29.84,10.0,WSW,6.9,-,N/A,,Scattered Clouds,250,2012-11-06 23:53:00
7:53 PM,68.0,62.1,81,29.86,10.0,WSW,5.8,-,N/A,,Partly Cloudy,240,2012-11-07 00:53:00
8:53 PM,66.0,62.1,87,29.86,10.0,WSW,5.8,-,N/A,,Clear,240,2012-11-07 01:53:00
9:53 PM,66.9,62.1,84,29.88,10.0,West,9.2,-,N/A,,Clear,270,2012-11-07 02:53:00
10:53 PM,63.0,61.0,93,29.87,10.0,West,6.9,-,N/A,,Clear,280,2012-11-07 03:53:00
11:53 PM,60.1,60.1,100,29.86,10.0,West,4.6,-,N/A,,Clear,260,2012-11-07 04:53:00